Skip Page Navigation
NASA JPL Caltech
NASA Logo - Jet Propulsion Laboratory + View the NASA Portal
+ Center for Near-Earth Object Studies
JPL Home Earth Solar System Stars & Galaxies Technology
JPL Solar System Dynamics
BODIES ORBITS EPHEMERIDES TOOLS PHYSICAL DATA DISCOVERY FAQ SITE MAP
JPL Small-Body Database Browser
Search: [ help ]  
216124 (2006 SW69)
Classification: Main-belt Asteroid          SPK-ID: 2216124
Ephemeris | Orbit Diagram | Orbital Elements | Mission Design | Physical Parameters | Discovery Circumstances ]

[ show orbit diagram ]
Orbital Elements at Epoch 2459200.5 (2020-Dec-17.0) TDB
Reference: JPL 20 (heliocentric ecliptic J2000)
 Element Value Uncertainty (1-sigma)   Units 
e .1130714063434284 3.9721e-08  
a 2.677466816144083 1.6014e-08 au
q 2.37472187780481 1.0818e-07 au
i 15.9273631742028 4.5712e-06 deg
node 193.3854641527307 1.2464e-05 deg
peri 199.6974188869229 2.1533e-05 deg
M 77.77172293420016 1.6182e-05 deg
tp 2458854.796487722052
(2020-Jan-06.29648772)
7.15e-05 TDB
period 1600.237974994546
4.38
1.4356e-05
3.93e-08
d
yr
n .2249665397430823 2.0183e-09 deg/d
Q 2.980211754483356 1.7824e-08 au
  Orbit Determination Parameters
   # obs. used (total)      462  
   data-arc span      6196 days (16.96 yr)  
   first obs. used      2004-03-20  
   last obs. used      2021-03-07  
   planetary ephem.      DE441  
   SB-pert. ephem.      SB441-N16  
   condition code      0  
   norm. resid. RMS      .50824  
   source      ORB  
   producer      Otto Matic  
   solution date      2021-Apr-13 23:53:32  

Additional Information
 Earth MOID = 1.3826 au 
 Jupiter MOID = 2.48309 au 
 T_jup = 3.314 
[ show covariance matrix ]

Ephemeris | Orbit Diagram | Orbital Elements | Mission Design | Physical Parameters | Discovery Circumstances ]

Physical Parameter Table
Parameter Symbol Value Units Sigma Reference Notes
absolute magnitude H 16.42   n/a MPCxxxxx  

216124 (2006 SW69)          Discovered 2006-Sep-19 by Spacewatch at Kitt Peak
Reference: 20090607/Numbers.arcLast Updated: 2009-06-08

Alternate Designations
 2006 SW69 = 2004 FL102 
Ephemeris | Orbit Diagram | Orbital Elements | Mission Design | Physical Parameters | Discovery Circumstances ]
ABOUT SSD CREDITS/AWARDS PRIVACY/COPYRIGHT GLOSSARY LINKS
FirstGov 2021-Jun-20 04:45 UT
(server date/time)  
NASA Home Page
Site Manager:   Ryan S. Park
Webmaster  Alan B. Chamberlin